Location: Lhota
(50.0887°N, 14.0116°E)
Time: 23:41:45
(UTC+00:00)

Cosmos 1470 - Pass Details

Date: 19 May 2025
Orbit: 455 x 466 km, 82.5° (Epoch: 15 June)

Event Time Altitude Azimuth Distance (km) Brightness Sun altitude
Rises 21:29:08 0° 1° (N) 2,518 7.4 -17.1°
Reaches altitude 10° 21:31:37 10° 18° (NNE) 1,637 5.9 -17.2°
Maximum altitude 21:34:22 21° 69° (ENE) 1,120 4.4 -17.4°
Enters shadow 21:35:22 19° 93° (E) 1,199 4.3 -17.5°
